Weather History for Cody, WY

Change the Weather History Date:

Monday, January 21, 2013

  Actual Average Record
Temperature  
Mean Temperature 32 °F -  
Max Temperature 51 °F 37 °F 59 °F (1944)
Min Temperature 12 °F 15 °F -28 °F (1930)
Degree Days  
Heating Degree Days 34    
Moisture  
Dew Point 11 °F    
Average Humidity 39    
Maximum Humidity 92    
Minimum Humidity 19    
Precipitation  
Precipitation 0.00 in - - ()
Sea Level Pressure  
Sea Level Pressure 30.06 in    
Wind  
Wind Speed 9 mph (West)    
Max Wind Speed 24 mph    
Max Gust Speed 36 mph    
Visibility 10 miles    
Events      
Averages and records for this station are not official NWS values.
T = Trace of Precipitation, MM = Missing Value Source: NWS Daily Summary

Daily Weather History Graph

Daily Weather History Graph

Search for Another Location

Airport:

Trip Planner

Search our weather history database for the weather conditions in past years. The results will help you decide how hot, cold, wet, or windy it might be!

Date:

Astronomy

Jan. 21, 2013 Rise Set
Actual Time 7:45 AM MST 5:10 PM MST
Civil Twilight 7:13 AM MST 5:42 PM MST
Nautical Twilight 6:37 AM MST 6:18 PM MST
Astronomical Twilight 6:02 AM MST 6:52 PM MST
Moon 12:51 PM MST (1/21) 3:16 AM MST (1/21)
Length of Visible Light 10h 29m
Length of Day
9h 25m
Waxing Gibbous, 75% of the Moon is Illuminated
Jan 21
Waxing Gibbous
Jan 26
Full
Feb 3
Last Quarter
Feb 10
New
Feb 17
First Quarter

Hourly Weather History & Observations

Time (MST) Temp. Windchill Dew Point Humidity Pressure Visibility Wind Dir Wind Speed Gust Speed Precip Events Conditions
12:15 AM 15.8 °F - 12.2 °F 86% 30.17 in 10.0 mi Calm Calm - N/A   Clear
12:35 AM 15.8 °F 6.1 °F 12.2 °F 86% 30.16 in 10.0 mi SSE 6.9 mph - N/A   Scattered Clouds
12:55 AM 15.8 °F 8.6 °F 12.2 °F 86% 30.16 in 10.0 mi South 4.6 mph - N/A   Partly Cloudy
1:15 AM 15.8 °F 10.2 °F 12.2 °F 86% 30.15 in 10.0 mi South 3.5 mph - N/A   Clear
1:35 AM 14.0 °F - 10.4 °F 86% 30.15 in 10.0 mi Calm Calm - N/A   Clear
2:15 AM 12.2 °F - 10.4 °F 92% 30.13 in 10.0 mi Calm Calm - N/A   Clear
2:35 AM 15.8 °F 6.1 °F 12.2 °F 86% 30.11 in 10.0 mi NW 6.9 mph - N/A   Clear
2:55 AM 37.4 °F 26.9 °F 23.0 °F 56% 30.11 in 10.0 mi West 20.7 mph 28.8 mph N/A   Clear
3:15 AM 39.2 °F 30.5 °F 17.6 °F 42% 30.11 in 10.0 mi West 16.1 mph 31.1 mph N/A   Clear
3:35 AM 21.2 °F 12.6 °F 8.6 °F 58% 30.12 in 10.0 mi NNW 6.9 mph - N/A   Clear
3:55 AM 15.8 °F 3.4 °F 8.6 °F 73% 30.12 in 10.0 mi North 10.4 mph - N/A   Clear
4:15 AM 17.6 °F 7.3 °F 12.2 °F 79% 30.11 in 10.0 mi NE 8.1 mph - N/A   Clear
4:35 AM 24.8 °F 13.4 °F 17.6 °F 74% 30.10 in 10.0 mi West 12.7 mph 18.4 mph N/A   Scattered Clouds
4:55 AM 39.2 °F 33.0 °F 17.6 °F 42% 30.10 in 10.0 mi West 9.2 mph 26.5 mph N/A   Partly Cloudy
5:15 AM 37.4 °F 32.1 °F 15.8 °F 41% 30.11 in 10.0 mi WNW 6.9 mph 20.7 mph N/A   Clear
5:35 AM 17.6 °F 8.2 °F 6.8 °F 63% 30.11 in 10.0 mi NE 6.9 mph - N/A   Clear
5:55 AM 12.2 °F - 10.4 °F 92% 30.11 in 10.0 mi Calm Calm - N/A   Clear
6:35 AM 37.4 °F 30.3 °F 15.8 °F 41% 30.10 in 10.0 mi West 10.4 mph - N/A   Partly Cloudy
6:55 AM 35.6 °F 31.7 °F 12.2 °F 38% 30.10 in 10.0 mi NW 4.6 mph - N/A   Mostly Cloudy
7:15 AM 23.0 °F 17.0 °F 17.6 °F 80% 30.09 in 10.0 mi NW 4.6 mph - N/A   Mostly Cloudy
7:35 AM 21.2 °F 13.6 °F 12.2 °F 68% 30.09 in 10.0 mi WNW 5.8 mph - N/A   Partly Cloudy
7:55 AM 24.8 °F 17.9 °F 8.6 °F 50% 30.09 in 10.0 mi NW 5.8 mph - N/A   Clear
8:15 AM 30.2 °F 21.9 °F 10.4 °F 44% 30.08 in 10.0 mi West 9.2 mph - N/A   Partly Cloudy
8:35 AM 35.6 °F 30.7 °F 10.4 °F 35% 30.09 in 10.0 mi WNW 5.8 mph - N/A   Partly Cloudy
8:55 AM 35.6 °F 30.7 °F 12.2 °F 38% 30.09 in 10.0 mi WNW 5.8 mph - N/A   Clear
9:15 AM 42.8 °F 36.2 °F 14.0 °F 31% 30.10 in 10.0 mi West 12.7 mph 19.6 mph N/A   Scattered Clouds
9:35 AM 44.6 °F 38.4 °F 12.2 °F 27% 30.10 in 10.0 mi WSW 12.7 mph 23.0 mph N/A   Mostly Cloudy
9:55 AM 44.6 °F 38.1 °F 12.2 °F 27% 30.10 in 10.0 mi WSW 13.8 mph 19.6 mph N/A   Scattered Clouds
10:15 AM 42.8 °F 41.1 °F 12.2 °F 29% 30.11 in 10.0 mi NNW 3.5 mph - N/A   Mostly Cloudy
10:35 AM 46.4 °F 42.4 °F 12.2 °F 25% 30.11 in 10.0 mi WSW 8.1 mph - N/A   Mostly Cloudy
10:55 AM 46.4 °F 39.2 °F 12.2 °F 25% 30.10 in 10.0 mi WSW 18.4 mph 23.0 mph N/A   Clear
11:15 AM 48.2 °F - 12.2 °F 24% 30.09 in 10.0 mi West 18.4 mph 28.8 mph N/A   Clear
11:35 AM 48.2 °F - 12.2 °F 24% 30.07 in 10.0 mi WSW 15.0 mph 24.2 mph N/A   Scattered Clouds
11:55 AM 48.2 °F - 12.2 °F 24% 30.06 in 10.0 mi West 16.1 mph 33.4 mph N/A   Partly Cloudy
12:15 PM 48.2 °F - 10.4 °F 22% 30.04 in 10.0 mi WSW 19.6 mph 31.1 mph N/A   Clear
12:35 PM 48.2 °F - 12.2 °F 24% 30.04 in 10.0 mi NNW 5.8 mph 25.3 mph N/A   Clear
12:55 PM 46.4 °F 40.1 °F 15.8 °F 29% 30.04 in 10.0 mi West 15.0 mph 25.3 mph N/A   Clear
1:15 PM 48.2 °F - 12.2 °F 24% 30.04 in 10.0 mi West 12.7 mph 24.2 mph N/A   Partly Cloudy
1:35 PM 48.2 °F - 10.4 °F 22% 30.03 in 10.0 mi WSW 9.2 mph - N/A   Scattered Clouds
1:55 PM 48.2 °F - 12.2 °F 24% 30.02 in 10.0 mi West 13.8 mph 24.2 mph N/A   Scattered Clouds
2:15 PM 50.0 °F - 12.2 °F 22% 30.02 in 10.0 mi WNW 9.2 mph 17.3 mph N/A   Mostly Cloudy
2:35 PM 51.8 °F - 12.2 °F 21% 30.02 in 10.0 mi West 12.7 mph - N/A   Partly Cloudy
2:55 PM 51.8 °F - 12.2 °F 21% 30.01 in 10.0 mi West 11.5 mph 18.4 mph N/A   Clear
3:15 PM 51.8 °F - 12.2 °F 21% 30.01 in 10.0 mi West 6.9 mph - N/A   Clear
3:35 PM 51.8 °F - 10.4 °F 19% 30.01 in 10.0 mi WNW 8.1 mph 16.1 mph N/A   Clear
3:55 PM 51.8 °F - 10.4 °F 19% 30.00 in 10.0 mi WSW 10.4 mph 19.6 mph N/A   Clear
4:15 PM 51.8 °F - 10.4 °F 19% 29.99 in 10.0 mi West 12.7 mph 20.7 mph N/A   Clear
4:35 PM 48.2 °F - 10.4 °F 22% 29.98 in 10.0 mi WSW 17.3 mph 26.5 mph N/A   Clear
5:35 PM 46.4 °F 39.2 °F 8.6 °F 22% 30.00 in 10.0 mi West 18.4 mph 25.3 mph N/A   Clear
5:55 PM 46.4 °F 39.8 °F 8.6 °F 22% 30.00 in 10.0 mi West 16.1 mph 26.5 mph N/A   Clear
6:15 PM 46.4 °F 40.4 °F 8.6 °F 22% 30.00 in 10.0 mi West 13.8 mph 26.5 mph N/A   Clear
6:35 PM 46.4 °F 39.5 °F 8.6 °F 22% 30.00 in 10.0 mi WSW 17.3 mph 29.9 mph N/A   Clear
6:55 PM 46.4 °F 40.1 °F 8.6 °F 22% 30.00 in 10.0 mi West 15.0 mph 23.0 mph N/A   Clear
7:15 PM 44.6 °F 39.7 °F 8.6 °F 23% 30.00 in 10.0 mi WNW 9.2 mph 18.4 mph N/A   Clear
7:35 PM 44.6 °F 39.7 °F 8.6 °F 23% 30.00 in 10.0 mi West 9.2 mph 17.3 mph N/A   Clear
7:55 PM 46.4 °F 39.0 °F 8.6 °F 22% 29.99 in 10.0 mi WSW 19.6 mph 27.6 mph N/A   Clear
8:15 PM 46.4 °F 39.8 °F 8.6 °F 22% 30.00 in 10.0 mi WSW 16.1 mph 27.6 mph N/A   Clear
8:35 PM 44.6 °F 36.9 °F 8.6 °F 23% 30.00 in 10.0 mi West 18.4 mph 23.0 mph N/A   Clear
8:55 PM 46.4 °F 40.4 °F 8.6 °F 22% 30.00 in 10.0 mi West 13.8 mph 21.9 mph N/A   Clear
9:15 PM 44.6 °F 37.8 °F 8.6 °F 23% 30.01 in 10.0 mi West 15.0 mph 20.7 mph N/A   Clear
9:35 PM 44.6 °F 38.4 °F 8.6 °F 23% 30.01 in 10.0 mi West 12.7 mph 20.7 mph N/A   Clear
9:55 PM 44.6 °F 36.4 °F 8.6 °F 23% 30.00 in 10.0 mi West 20.7 mph 31.1 mph N/A   Clear
10:15 PM 44.6 °F 37.8 °F 8.6 °F 23% 30.00 in 10.0 mi West 15.0 mph 26.5 mph N/A   Clear
10:35 PM 44.6 °F 41.4 °F 6.8 °F 21% 30.01 in 10.0 mi North 5.8 mph - N/A   Clear
10:55 PM 44.6 °F 38.4 °F 6.8 °F 21% 30.00 in 10.0 mi WNW 12.7 mph 21.9 mph N/A   Clear
11:15 PM 46.4 °F 38.1 °F 6.8 °F 20% 29.99 in 10.0 mi West 24.2 mph 35.7 mph N/A   Clear
11:35 PM 46.4 °F 38.1 °F 6.8 °F 20% 30.00 in 10.0 mi WSW 24.2 mph 31.1 mph N/A   Clear